Showing default

AETHER-8, 67379

Orbit data source: Space-Track

AETHER-8, 67379 is a payload satellite owned by Kepler Comms (CA) in SSO that was launched on Sun, 11 Jan 2026 UTC via an FALCON 9 launch vehicle from the Air Force Western Test Range (AFWTR). Payload-class satellites include a variety of spacecraft equipped with specific instruments for various scientific and technological missions. These include communications satellites like Starlink; space stations such as the ISS; scientific satellites like the Hubble; Earth observation satellites from companies like Planet Labs, Umbra, and HawkEye 360; GPS; miniature CubeSats for education and research; and military/defense satellites.

Loading next visibility...
Identifier
67379, 2026-004S
Orbit
SSO
Country
Flag of CACA
Related business
Manufacturer
Kepler Comms
Mission
Operational Commercial Communications
Bus & Motor
KEPLER GEN2B, Unknown motor
Mass
300 kg wet, 300 kg dry
Launch date (UTC)
2026-01-11 (4 months ago)
Launch vehicle
FALCON 9
Launch site
Air Force Western Test Range (AFWTR)
Object type
Payload
Rocket body
Debris
Shape & HBR
Box + 2 Pan, 7.6 m
Radar Cross Section
4.448 m²

Expand to show TLE details & history
Last TLE update: 9 hours ago

TLE from 9 hours ago
0 AETHER-8
1 67379U 26004S   26146.59715413  .00000379  00000-0  49155-4 0  9995
2 67379  97.8013 145.5242 0000860 199.1357 160.9827 14.86285237 20072
Epoch: 2026-05-26T14:19Z
TLE epoch observation values (Epoch: 2026-05-26T14:19:54.116Z)
Latitude
0.00001°
Longitude
46.3804°
Altitude
613.156 km
Speed
7.552 km/s
True Right ascension
09h 42m 05s
True Declination
0° 00' 00"
Sunlit
Object was in daylight at epoch
Visualization orbit readout
Latitude
Unknown
Longitude
Unknown
Altitude
Unknown
Speed
Unknown
Apparent Right ascension
Unknown
Apparent Declination
Unknown
Sunlit
N/A
Visualization observer readout
Local Sidereal Time
09:02:21
Azimuth
Unknown
Elevation
Unknown
Doppler factor
Unknown
Orbital elements
Apogee altitude
607.183 km
Perigee altitude
605.982 km
Semi-major axis
6,984.72 km
Eccentricity
0.00009
Inclination
97.8013°
RAAN
145.5242°
Arg. of periapsis
199.1357°
True anomaly
160.98591°
Mean anomaly
160.9827°
Eccentric anomaly
160.98431°
Mean motion
3.71809 °/min
Orbital period
96.82 mins
BSTAR
0.000049155
Loading maneuver chart data...
Computing Atmospheric mass density...
Loading historical data...
Loading historical data...
Loading historical data...
Loading historical data...
Loading historical data...
Loading historical data...
Loading historical data...

Documentation

Showing up to 5 results
|